| time (UTC) | temp C | wind direction | speed KPH | gust KPH | rain 1hr cm | rain 24hr cm | rain mn cm | humidity % | barometer mb |
| 20260905072146 | 31 | 294 | 9.7 | 12.9 | 0.00 | 0.00 | 0.00 | 66 | 1012.0 |
| 20260905071145 | 31 | 293 | 8.0 | 9.7 | 0.00 | 0.00 | 0.00 | 67 | 1012.0 |
| 20260905070145 | 31 | 271 | 4.8 | 9.7 | 0.00 | 0.00 | 0.00 | 67 | 1012.1 |
| 20260905065225 | 31 | 305 | 4.8 | 4.8 | 0.00 | 0.00 | 0.00 | 67 | 1012.2 |
| 20260905064145 | 31 | 283 | 3.2 | 4.8 | 0.00 | 0.00 | 0.00 | 66 | 1012.3 |
| 20260905063146 | 32 | 281 | 0.0 | 3.2 | 0.00 | 0.00 | 0.00 | 65 | 1012.3 |
| 20260905062145 | 32 | 265 | 3.2 | 4.8 | 0.00 | 0.00 | 0.00 | 65 | 1012.4 |
| 20260905061145 | 32 | 246 | 0.0 | 1.6 | 0.00 | 0.00 | 0.00 | 65 | 1012.5 |
| 20260905060145 | 32 | 273 | 3.2 | 4.8 | 0.00 | 0.00 | 0.00 | 65 | 1012.4 |
| 20260905055145 | 32 | 257 | 0.0 | 1.6 | 0.00 | 0.00 | 0.00 | 66 | 1012.3 |
| 20260905054145 | 32 | 267 | 1.6 | 3.2 | 0.00 | 0.00 | 0.00 | 66 | 1012.4 |
| 20260905053146 | 32 | 277 | 1.6 | 3.2 | 0.00 | 0.00 | 0.00 | 66 | 1012.5 |
| 20260905052206 | 32 | 233 | 1.6 | 3.2 | 0.00 | 0.00 | 0.00 | 66 | 1012.5 |
| 20260905051146 | 32 | 260 | 3.2 | 6.4 | 0.00 | 0.00 | 0.00 | 66 | 1012.4 |
| 20260905050145 | 32 | 242 | 1.6 | 4.8 | 0.00 | 0.00 | 0.00 | 66 | 1012.4 |
| 20260905045145 | 32 | 244 | 3.2 | 3.2 | 0.00 | 0.00 | 0.00 | 66 | 1012.4 |
| 20260905044146 | 32 | 237 | 1.6 | 3.2 | 0.00 | 0.00 | 0.00 | 66 | 1012.3 |
| 20260905043145 | 32 | 234 | 4.8 | 6.4 | 0.00 | 0.00 | 0.00 | 65 | 1012.3 |
| 20260905042145 | 32 | 245 | 8.0 | 9.7 | 0.00 | 0.00 | 0.00 | 65 | 1012.3 |
| 20260905041145 | 32 | 240 | 1.6 | 6.4 | 0.00 | 0.00 | 0.00 | 65 | 1012.3 |
| 20260905040146 | 32 | 266 | 1.6 | 6.4 | 0.00 | 0.00 | 0.00 | 65 | 1012.2 |
| 20260905035145 | 32 | 277 | 0.0 | 3.2 | 0.00 | 0.00 | 0.00 | 65 | 1012.2 |
| 20260905034145 | 32 | 249 | 3.2 | 4.8 | 0.00 | 0.00 | 0.00 | 65 | 1012.1 |
| 20260905033146 | 32 | 257 | 1.6 | 4.8 | 0.00 | 0.00 | 0.00 | 65 | 1011.9 |
| 20260905032145 | 32 | 239 | 3.2 | 4.8 | 0.00 | 0.00 | 0.00 | 65 | 1011.8 |
| 20260905031145 | 32 | 283 | 1.6 | 4.8 | 0.00 | 0.00 | 0.00 | 65 | 1011.7 |
| 20260905030145 | 32 | 270 | 3.2 | 3.2 | 0.00 | 0.00 | 0.00 | 65 | 1011.5 |
| 20260905025146 | 32 | 280 | 1.6 | 3.2 | 0.00 | 0.00 | 0.00 | 65 | 1011.3 |
| 20260905024206 | 32 | 252 | 3.2 | 4.8 | 0.00 | 0.00 | 0.00 | 65 | 1011.2 |
| 20260905023145 | 32 | 266 | 3.2 | 6.4 | 0.00 | 0.00 | 0.00 | 65 | 1011.1 |
| 20260905022146 | 32 | 252 | 4.8 | 6.4 | 0.00 | 0.00 | 0.00 | 65 | 1011.0 |
| 20260905021206 | 32 | 244 | 3.2 | 8.0 | 0.00 | 0.00 | 0.00 | 65 | 1011.0 |
| 20260905020205 | 32 | 254 | 4.8 | 8.0 | 0.00 | 0.00 | 0.00 | 64 | 1010.9 |
| 20260905015146 | 32 | 253 | 3.2 | 8.0 | 0.00 | 0.00 | 0.00 | 63 | 1010.8 |
| 20260905014146 | 33 | 221 | 4.8 | 9.7 | 0.00 | 0.00 | 0.00 | 59 | 1010.8 |
| 20260905013146 | 33 | 242 | 4.8 | 6.4 | 0.00 | 0.00 | 0.00 | 59 | 1010.7 |
| 20260905012145 | 33 | 302 | 1.6 | 4.8 | 0.00 | 0.00 | 0.00 | 60 | 1010.7 |
| 20260905011145 | 33 | 255 | 1.6 | 11.3 | 0.00 | 0.00 | 0.00 | 61 | 1010.6 |
| 20260905010145 | 32 | 269 | 6.4 | 11.3 | 0.00 | 0.00 | 0.00 | 64 | 1010.6 |
| 20260905005146 | 32 | 236 | 6.4 | 9.7 | 0.00 | 0.00 | 0.00 | 64 | 1010.6 |
| 20260905004145 | 32 | 261 | 9.7 | 12.9 | 0.00 | 0.00 | 0.00 | 65 | 1010.7 |
| 20260905003146 | 32 | 224 | 9.7 | 12.9 | 0.00 | 0.00 | 0.00 | 64 | 1010.7 |
| 20260905002147 | 32 | 248 | 8.0 | 12.9 | 0.00 | 0.00 | 0.00 | 62 | 1010.7 |
| 20260905001147 | 32 | 245 | 11.3 | 14.5 | 0.00 | 0.00 | 0.00 | 61 | 1010.6 |
| 20260905000146 | 32 | 247 | 6.4 | 14.5 | 0.00 | 0.00 | 0.00 | 61 | 1010.5 |
| 20260904235147 | 32 | 246 | 6.4 | 11.3 | 0.00 | 0.00 | 0.00 | 62 | 1010.5 |
| 20260904234148 | 32 | 237 | 14.5 | 19.3 | 0.00 | 0.00 | 0.00 | 61 | 1010.6 |
| 20260904233147 | 32 | 241 | 9.7 | 16.1 | 0.00 | 0.00 | 0.00 | 60 | 1010.6 |
| 20260904232148 | 33 | 238 | 9.7 | 19.3 | 0.00 | 0.00 | 0.00 | 60 | 1010.8 |
| 20260904231147 | 33 | 237 | 11.3 | 16.1 | 0.00 | 0.00 | 0.00 | 58 | 1011.0 |
| 20260904230147 | 34 | 229 | 19.3 | 24.1 | 0.00 | 0.00 | 0.00 | 54 | 1010.8 |
| 20260904225149 | 35 | 251 | 9.7 | 14.5 | 0.00 | 0.00 | 0.00 | 55 | 1010.8 |
| 20260904224147 | 35 | 261 | 4.8 | 11.3 | 0.00 | 0.00 | 0.00 | 54 | 1010.9 |
| 20260904223147 | 35 | 286 | 11.3 | 12.9 | 0.00 | 0.00 | 0.00 | 54 | 1010.9 |
| 20260904222146 | 35 | 290 | 12.9 | 20.9 | 0.00 | 0.00 | 0.00 | 53 | 1010.9 |
| 20260904221146 | 36 | 319 | 11.3 | 17.7 | 0.00 | 0.00 | 0.00 | 52 | 1010.7 |
| 20260904220205 | 36 | 289 | 8.0 | 11.3 | 0.00 | 0.00 | 0.00 | 49 | 1010.7 |
| 20260904215206 | 36 | 282 | 1.6 | 4.8 | 0.00 | 0.00 | 0.00 | 49 | 1010.9 |
| 20260904214147 | 36 | 295 | 4.8 | 8.0 | 0.00 | 0.00 | 0.00 | 48 | 1011.0 |
| 20260904213147 | 36 | 285 | 11.3 | 14.5 | 0.00 | 0.00 | 0.00 | 46 | 1011.1 |
| 20260904212146 | 37 | 245 | 6.4 | 9.7 | 0.00 | 0.00 | 0.00 | 45 | 1011.4 |
| 20260904211145 | 37 | 228 | 0.0 | 1.6 | 0.00 | 0.00 | 0.00 | 44 | 1011.5 |
| 20260904210145 | 37 | 254 | 8.0 | 11.3 | 0.00 | 0.00 | 0.00 | 45 | 1011.7 |
| 20260904205205 | 37 | 253 | 6.4 | 12.9 | 0.00 | 0.00 | 0.00 | 44 | 1011.7 |
| 20260904204207 | 37 | 0.0 | 1.6 | 0.00 | 0.00 | 0.00 | 46 | 1011.8 | |
| 20260904203154 | 37 | 237 | 8.0 | 9.7 | 0.00 | 0.00 | 0.00 | 45 | 1011.9 |
| 20260904202206 | 36 | 272 | 6.4 | 9.7 | 0.00 | 0.00 | 0.00 | 46 | 1012.1 |
| 20260904201208 | 36 | 266 | 6.4 | 11.3 | 0.00 | 0.00 | 0.00 | 44 | 1012.2 |
| 20260904200145 | 37 | 238 | 6.4 | 9.7 | 0.00 | 0.00 | 0.00 | 45 | 1012.3 |
| 20260904195205 | 36 | 237 | 8.0 | 9.7 | 0.00 | 0.00 | 0.00 | 46 | 1012.4 |
| 20260904194145 | 37 | 262 | 8.0 | 11.3 | 0.00 | 0.00 | 0.00 | 47 | 1012.6 |
| 20260904193145 | 37 | 287 | 9.7 | 9.7 | 0.00 | 0.00 | 0.00 | 47 | 1012.8 |
| 20260904192146 | 37 | 0.0 | 3.2 | 0.00 | 0.00 | 0.00 | 47 | 1013.0 | |
| 20260904191145 | 36 | 195 | 8.0 | 11.3 | 0.00 | 0.00 | 0.00 | 49 | 1013.1 |
| 20260904190145 | 36 | 262 | 6.4 | 11.3 | 0.00 | 0.00 | 0.00 | 48 | 1013.2 |
| 20260904185145 | 36 | 140 | 0.0 | 3.2 | 0.00 | 0.00 | 0.00 | 51 | 1013.3 |
| 20260904184145 | 36 | 239 | 0.0 | 4.8 | 0.00 | 0.00 | 0.00 | 50 | 1013.5 |
| 20260904183147 | 36 | 194 | 8.0 | 9.7 | 0.00 | 0.00 | 0.00 | 49 | 1013.6 |
| 20260904182146 | 35 | 94 | 1.6 | 1.6 | 0.00 | 0.00 | 0.00 | 52 | 1013.8 |
| 20260904181145 | 35 | 129 | 3.2 | 6.4 | 0.00 | 0.00 | 0.00 | 53 | 1013.9 |
| 20260904180146 | 36 | 23 | 1.6 | 3.2 | 0.00 | 0.00 | 0.00 | 55 | 1014.1 |
| 20260904175145 | 35 | 294 | 4.8 | 6.4 | 0.00 | 0.00 | 0.00 | 57 | 1014.2 |
| 20260904174205 | 35 | 241 | 0.0 | 1.6 | 0.00 | 0.00 | 0.00 | 57 | 1014.3 |
| 20260904173206 | 35 | 108 | 3.2 | 3.2 | 0.00 | 0.00 | 0.00 | 54 | 1014.3 |
| 20260904172145 | 34 | 164 | 4.8 | 6.4 | 0.00 | 0.00 | 0.00 | 58 | 1014.3 |
| 20260904171146 | 34 | 206 | 1.6 | 4.8 | 0.00 | 0.00 | 0.00 | 60 | 1014.4 |
| 20260904170145 | 34 | 191 | 1.6 | 1.6 | 0.00 | 0.00 | 0.00 | 61 | 1014.4 |
| 20260904165146 | 33 | 188 | 1.6 | 4.8 | 0.00 | 0.00 | 0.00 | 62 | |
| 20260904164146 | 32 | 112 | 4.8 | 6.4 | 0.00 | 0.00 | 0.00 | 64 | |
| 20260904163146 | 32 | 120 | 9.7 | 11.3 | 0.00 | 0.00 | 0.00 | 66 | |
| 20260904162307 | 32 | 145 | 9.7 | 12.9 | 0.00 | 0.00 | 0.00 | 67 | |
| 20260904161146 | 32 | 122 | 8.0 | 14.5 | 0.00 | 0.00 | 0.00 | 69 | |
| 20260904160145 | 31 | 131 | 4.8 | 9.7 | 0.00 | 0.00 | 0.00 | 71 | |
| 20260904155145 | 31 | 124 | 6.4 | 11.3 | 0.00 | 0.00 | 0.00 | 72 | |
| 20260904154206 | 31 | 124 | 8.0 | 11.3 | 0.00 | 0.00 | 0.00 | 73 | |
| 20260904153145 | 31 | 123 | 3.2 | 8.0 | 0.00 | 0.00 | 0.00 | 74 | |
| 20260904152145 | 31 | 114 | 8.0 | 9.7 | 0.00 | 0.00 | 0.00 | 74 | |
| 20260904151145 | 30 | 130 | 6.4 | 9.7 | 0.00 | 0.00 | 0.00 | 76 | |
| 20260904150145 | 30 | 132 | 9.7 | 12.9 | 0.00 | 0.00 | 0.00 | 76 | |
| 20260904145145 | 30 | 119 | 8.0 | 9.7 | 0.00 | 0.00 | 0.00 | 77 | |
| 20260904144146 | 30 | 128 | 6.4 | 9.7 | 0.00 | 0.00 | 0.00 | 77 | |
| 20260904143145 | 29 | 122 | 4.8 | 6.4 | 0.00 | 0.00 | 0.00 | 79 | |
| 20260904142147 | 29 | 123 | 6.4 | 11.3 | 0.00 | 0.00 | 0.00 | 79 | |
| 20260904141145 | 29 | 124 | 8.0 | 9.7 | 0.00 | 0.00 | 0.00 | 79 | |
| 20260904140207 | 28 | 135 | 3.2 | 4.8 | 0.00 | 0.00 | 0.00 | 80 | |
| 20260904135145 | 28 | 130 | 6.4 | 8.0 | 0.00 | 0.00 | 0.00 | 80 | |
| 20260904134145 | 28 | 143 | 1.6 | 4.8 | 0.00 | 0.00 | 0.00 | 81 | |
| 20260904133146 | 28 | 126 | 1.6 | 1.6 | 0.00 | 0.00 | 0.00 | 81 | |
| 20260904132146 | 28 | 143 | 0.0 | 1.6 | 0.00 | 0.00 | 0.00 | 82 | |
| 20260904131145 | 28 | 119 | 3.2 | 6.4 | 0.00 | 0.00 | 0.00 | 82 | |
| 20260904130146 | 28 | 121 | 4.8 | 6.4 | 0.00 | 0.00 | 0.00 | 82 | |
| 20260904125146 | 28 | 111 | 6.4 | 8.0 | 0.00 | 0.00 | 0.00 | 82 | |
| 20260904124146 | 28 | 129 | 4.8 | 6.4 | 0.00 | 0.00 | 0.00 | 82 | |
| 20260904123145 | 28 | 139 | 4.8 | 6.4 | 0.00 | 0.00 | 0.00 | 82 | |
| 20260904122145 | 28 | 125 | 6.4 | 11.3 | 0.00 | 0.00 | 0.00 | 82 | |
| 20260904121145 | 28 | 119 | 4.8 | 9.7 | 0.00 | 0.00 | 0.00 | 83 | |
| 20260904120145 | 28 | 116 | 4.8 | 6.4 | 0.00 | 0.00 | 0.00 | 83 | |
| 20260904115146 | 28 | 137 | 6.4 | 8.0 | 0.00 | 0.00 | 0.00 | 84 | |
| 20260904114145 | 28 | 119 | 6.4 | 8.0 | 0.00 | 0.00 | 0.00 | 84 | |
| 20260904113145 | 28 | 117 | 8.0 | 8.0 | 0.00 | 0.00 | 0.00 | 84 | |
| 20260904112145 | 28 | 120 | 8.0 | 9.7 | 0.00 | 0.00 | 0.00 | 84 | |
| 20260904111205 | 28 | 139 | 3.2 | 6.4 | 0.00 | 0.00 | 0.00 | 84 | |
| 20260904110145 | 28 | 153 | 4.8 | 4.8 | 0.00 | 0.00 | 0.00 | 85 | |
| 20260904105146 | 28 | 143 | 6.4 | 9.7 | 0.00 | 0.00 | 0.00 | 86 | |
| 20260904104145 | 28 | 147 | 4.8 | 4.8 | 0.00 | 0.00 | 0.00 | 86 | |
| 20260904103145 | 28 | 123 | 4.8 | 8.0 | 0.00 | 0.00 | 0.00 | 87 | |
| 20260904102146 | 28 | 171 | 4.8 | 8.0 | 0.00 | 0.00 | 0.00 | 86 | |
| 20260904101145 | 28 | 150 | 4.8 | 8.0 | 0.00 | 0.00 | 0.00 | 86 | |
| 20260904100147 | 28 | 133 | 0.0 | 3.2 | 0.00 | 0.00 | 0.00 | 85 | |
| 20260904095145 | 28 | 119 | 6.4 | 8.0 | 0.00 | 0.00 | 0.00 | 85 | |
| 20260904094145 | 28 | 148 | 4.8 | 6.4 | 0.00 | 0.00 | 0.00 | 85 | |
| 20260904093206 | 28 | 123 | 3.2 | 6.4 | 0.00 | 0.00 | 0.00 | 85 | |
| 20260904092207 | 29 | 124 | 4.8 | 6.4 | 0.00 | 0.00 | 0.00 | 84 | |
| 20260904091146 | 29 | 128 | 3.2 | 4.8 | 0.00 | 0.00 | 0.00 | 84 | |
| 20260904090146 | 29 | 138 | 3.2 | 3.2 | 0.00 | 0.00 | 0.00 | 84 | |
| 20260904085146 | 29 | 141 | 4.8 | 6.4 | 0.00 | 0.00 | 0.00 | 83 | |
| 20260904084208 | 29 | 151 | 6.4 | 6.4 | 0.00 | 0.00 | 0.00 | 82 | |
| 20260904083207 | 29 | 153 | 8.0 | 9.7 | 0.00 | 0.00 | 0.00 | 80 | |
| 20260904082146 | 29 | 180 | 3.2 | 8.0 | 0.00 | 0.00 | 0.00 | 78 | |
| 20260904081146 | 29 | 145 | 3.2 | 6.4 | 0.00 | 0.00 | 0.00 | 76 | |
| 20260904080146 | 29 | 161 | 3.2 | 4.8 | 0.00 | 0.00 | 0.00 | 76 | |
| 20260904075146 | 29 | 144 | 1.6 | 3.2 | 0.00 | 0.00 | 0.00 | 75 | |
| 20260904074146 | 30 | 147 | 3.2 | 4.8 | 0.00 | 0.00 | 0.00 | 74 | |
| 20260904073147 | 30 | 162 | 4.8 | 6.4 | 0.00 | 0.00 | 0.00 | 74 |